Simultaneous Nadir Overpasses (SNOs) Predictions

Prediction of SNOs between METOP-A and TERRA Satellite Orbit:

Table of predicted SNOs for the next 14.0 days since TLE Epoch: 1/16/2016
Index Date (METOP-A) Time (METOP-A) Lat,Lon (METOP-A) SZA (METOP-A ) Date (TERRA) Time (TERRA) Lat,Lon (TERRA) SZA (TERRA ) Distance(km) Time Diff (sec)
1 01/16/2016 13:22:40 -81.29,-153.94 75.41 01/16/2016 13:23:01 -81.29,-153.80 75.38 2.34 21
2 01/16/2016 14:13:20 81.29, 13.82 104.64 01/16/2016 14:12:27 81.29, 13.93 104.63 1.91 53
3 01/19/2016 08:57:02 -81.29, -87.15 75.94 01/19/2016 08:57:16 -81.30, -87.18 75.94 0.76 14
4 01/19/2016 09:47:42 81.30, 80.60 104.10 01/19/2016 09:46:42 81.30, 80.53 104.07 1.29 60
5 01/22/2016 04:31:26 -81.29, -21.17 76.62 01/22/2016 04:31:32 -81.28, -21.03 76.60 2.52 6
6 01/
